Flag for Guernsey Weather past 2 weeks in St. Peter Port, Guernsey

Now
59 °F

Passing clouds.


Feels Like: 59 °F
Forecast: 58 / 70 °F
Wind: 5 mph from Southeast

Location: Guernsey Airport

Current Time: Jul 5, 2015 at 6:27:47 AM

Latest Report: Jul 5, 2015 at 5:50 AM


Visibility: N/A

Pressure: 30.09 "Hg

Humidity: 88%

Dew point: 55 °F

Location of St. Peter PortLocation

Historic Weather in St. Peter Port — Graph

°F

St. Peter Port temperature yesterday

Maximum temperature yesterday: 68 °F (at 11:50 AM)
Minimum temperature yesterday: 61 °F (at 4:50 AM)
Average temperature yesterday: 65 °F

Past Weeks' High & Low Weather Summary

 TemperatureHumidityPressure
High84 °F (Jun 30, 3:20 PM)100% (Jun 20, 6:50 PM)30.27 "Hg (Jun 20, 6:50 PM)
Low50 °F (Jun 24, 3:50 AM)43% (Jun 30, 3:50 PM)29.80 "Hg (Jul 1, 3:50 AM)
Average62 °F82%30.11 "Hg
* Reported Jun 20 5:20 AM — Jul 5 5:20 AM, St. Peter Port, Weather by CustomWeather, © 2015

Note: Actual official high and low records may vary slightly from our data, if they occured in-between our weather recording intervals... More about our weather records

Advertising

St. Peter Port weather history for previous 24 hours

 ConditionsComfort  
Time TempWeatherWind HumidityBarometerVisibility
5:20 AM
Sun, Jul 5
59 °FPassing clouds.5 mph88%30.09 "HgN/A
4:50 AM59 °FPassing clouds.6 mph88%30.12 "HgN/A
4:20 AM59 °FPassing clouds.3 mph88%30.12 "HgN/A
3:50 AM59 °FPassing clouds.5 mph82%30.12 "HgN/A
8:50 PM
Sat, Jul 4
63 °FScattered clouds.7 mph68%30.18 "HgN/A
8:20 PM63 °FScattered clouds.8 mph68%30.18 "HgN/A
7:50 PM63 °FScattered clouds.7 mph73%30.18 "HgN/A
7:20 PM63 °FPassing clouds.7 mph68%30.18 "HgN/A
6:50 PM64 °FPassing clouds.10 mph68%30.18 "HgN/A
6:20 PM64 °FPassing clouds.10 mph68%30.18 "HgN/A
5:50 PM66 °FScattered clouds.10 mph64%30.21 "HgN/A
5:20 PM66 °FPartly sunny.13 mph68%30.18 "HgN/A
4:50 PM66 °FPassing clouds.13 mph64%30.18 "HgN/A
4:20 PM68 °FPassing clouds.10 mph56%30.18 "HgN/A
3:50 PM68 °FPassing clouds.12 mph60%30.18 "HgN/A
3:20 PM68 °FPassing clouds.12 mph69%30.18 "HgN/A
2:50 PM68 °FPassing clouds.12 mph73%30.18 "HgN/A
2:20 PM68 °FPassing clouds.13 mph69%30.18 "HgN/A
1:50 PM68 °FPassing clouds.12 mph73%30.18 "HgN/A
1:20 PM68 °FPassing clouds.14 mph73%30.18 "HgN/A
12:50 PM68 °FPassing clouds.14 mph69%30.18 "HgN/A
12:20 PM68 °FPassing clouds.14 mph78%30.18 "HgN/A
11:50 AM68 °FPassing clouds.17 mph73%30.18 "HgN/A
11:20 AM66 °FPassing clouds.17 mph78%30.15 "HgN/A
10:50 AM64 °FPassing clouds.18 mph88%30.15 "HgN/A
10:20 AM64 °FPassing clouds.21 mph83%30.15 "HgN/A
9:50 AM64 °FPassing clouds.18 mph88%30.12 "HgN/A
9:20 AM64 °FScattered clouds.17 mph88%30.12 "HgN/A
8:50 AM64 °FPassing clouds.18 mph88%30.12 "HgN/A
8:20 AM64 °FPassing clouds.21 mph88%30.09 "HgN/A
7:50 AM63 °FPassing clouds.16 mph88%30.09 "HgN/A
7:20 AM63 °FPassing clouds.14 mph88%30.07 "HgN/A
6:50 AM63 °FPassing clouds.14 mph88%30.07 "HgN/A
6:20 AM61 °FPassing clouds.12 mph88%30.07 "HgN/A
Weather by CustomWeather, © 2015

See weather overviewHow to use our weather pages